Temp
13 13 13 13 13 13 13 14 14 14 14 13 12 12 11 11 10 10 9 9 9 9 9 10 10 9 8 8 7 7 7 7 7 7 7 7 7 8
13 13 13 13 13 13 13 13 13 13 13 13 13 12 11 10 10 10 9 10 9 9 9 9 10 9 9 8 8 6 6 6 7 7 6 7 7 7
13 13 13 13 13 13 13 12 13 13 12 12 12 11 10 9 9 9 8 10 10 9 9 9 9 9 8 7 6 6 5 6 6 6 6 7 6 6
13 12 13 13 12 12 12 12 12 12 12 12 11 10 9 9 8 8 8 8 10 9 9 8 8 8 7 6 6 5 5 6 5 5 6 5 5 5
13 12 12 12 12 12 12 11 11 12 11 11 10 9 8 8 7 8 8 8 8 8 8 7 7 7 7 5 3 4 4 4 5 5 5 5 5 5
12 12 12 12 12 12 12 11 11 11 11 10 9 8 8 8 8 8 7 8 8 7 6 6 6 6 6 4 4 4 4 5 5 5 4 5 5 5
12 12 12 12 11 12 12 11 11 11 9 9 9 8 9 9 8 7 8 8 8 7 6 6 6 5 5 3 2 3 4 4 4 4 4 4 4 4
12 11 11 11 11 11 11 10 10 10 9 9 8 8 9 8 8 8 8 7 7 7 5 5 5 5 4 2 2 2 3 3 3 3 4 3 3 4
12 11 11 11 11 11 10 10 10 9 9 8 8 7 7 8 8 8 7 7 6 5 4 4 4 4 3 3 2 2 3 3 3 3 3 3 3 3
11 11 11 11 11 10 9 9 9 8 7 7 7 6 7 7 7 7 6 5 4 3 3 3 3 3 3 3 2 2 2 2 2 2 2 2 2 2
10 10 10 10 10 9 9 9 9 8 7 7 6 6 7 7 6 6 5 4 3 3 3 3 3 3 2 2 1 1 2 2 2 2 1 2 2 2
9 9 9 9 9 9 9 8 8 8 8 7 5 5 6 6 5 5 4 3 2 2 3 2 2 2 2 2 1 0 2 1 1 1 1 1 1 2
9 10 9 9 9 9 8 8 8 8 7 5 6 6 5 5 4 3 3 2 2 1 2 2 2 2 1 1 1 0 1 1 1 1 0 0 0 1
8 8 8 8 8 8 7 7 7 6 5 5 5 5 4 4 3 2 2 1 1 1 1 0 0 1 1 1 0 1 0 0 0 0 -0 -0 -0 -0
7 7 7 8 7 7 6 5 4 3 4 4 5 4 3 2 2 2 1 1 0 -0 0 0 0 0 -0 -0 -1 -0 -1 -1 -0 -0 -1 -1 -1 -1
4 5 6 6 5 5 5 3 3 4 4 4 4 3 2 2 2 1 1 0 -0 -0 -0 -0 -0 -1 -1 -1 -1 -0 -1 -1 -1 -1 -1 -1 -1 -1
1 2 3 3 3 3 3 2 2 2 3 3 2 2 2 2 1 1 0 -0 -0 -1 -1 -1 -1 -1 -1 -1 -1 -1 -1 -1 -1 -2 -2 -2 -2 -2
0 0 1 1 2 2 3 1 1 2 2 1 2 2 2 1 1 0 -0 -1 -1 -1 -2 -2 -2 -2 -2 -1 -1 -1 -1 -1 -2 -2 -2 -2 -1 -2
-0 -1 -1 0 1 2 2 2 3 3 3 2 2 1 1 0 -0 -0 -0 -1 -1 -2 -2 -3 -2 -2 -2 -2 -2 -1 -2 -2 -2 -2 -2 -2 -2 -3
-1 -0 -0 -1 -1 0 1 2 2 2 2 2 1 1 0 -0 -0 -0 -1 -2 -2 -2 -3 -3 -2 -2 -3 -3 -3 -2 -3 -3 -3 -3 -3 -2 -2 -2
-2 -2 -1 -1 -1 -1 -0 0 0 1 1 1 0 0 -0 -1 -1 -1 -2 -2 -2 -2 -2 -2 -3 -4 -4 -4 -3 -3 -3 -3 -3 -3 -3 -3 -2 -2
-3 -3 -3 -2 -2 -2 -1 -1 -1 -1 -1 -1 -1 -1 -1 -1 -1 -1 -2 -2 -2 -2 -2 -3 -4 -4 -4 -4 -4 -4 -4 -5 -4 -3 -3 -3 -3 -3
-4 -4 -4 -3 -2 -2 -2 -2 -2 -1 -1 -1 -1 -1 -1 -1 -2 -2 -2 -2 -3 -3 -3 -4 -4 -5 -5 -4 -5 -5 -5 -5 -5 -5 -4 -4 -3 -3
Height
1517 1522 1526 1530 1533 1536 1538 1539 1539 1539 1540 1540 1541 1541 1541 1541 1542 1542 1544 1541 1541 1540 1539 1537 1536 1534 1534 1534 1533 1533 1534 1533 1534 1533 1532 1531 1531 1530
1512 1517 1520 1524 1528 1531 1533 1535 1536 1536 1537 1536 1536 1537 1537 1538 1538 1538 1538 1537 1538 1537 1536 1533 1531 1530 1528 1527 1527 1528 1530 1531 1531 1531 1532 1532 1531 1530
1506 1510 1514 1518 1522 1524 1527 1529 1530 1530 1531 1532 1532 1532 1534 1535 1534 1533 1533 1531 1531 1531 1530 1528 1525 1523 1522 1522 1521 1521 1522 1525 1526 1527 1528 1528 1528 1530
1499 1503 1506 1511 1514 1517 1520 1523 1524 1525 1526 1526 1527 1528 1529 1529 1530 1529 1529 1527 1524 1525 1523 1522 1520 1517 1516 1515 1516 1518 1520 1521 1521 1523 1524 1524 1524 1525
1492 1496 1499 1503 1507 1510 1512 1516 1518 1518 1519 1519 1520 1523 1523 1524 1526 1526 1526 1523 1520 1519 1517 1516 1515 1514 1512 1511 1511 1512 1513 1515 1515 1517 1519 1521 1520 1521
1485 1489 1492 1496 1499 1503 1505 1508 1511 1512 1513 1514 1514 1516 1515 1519 1522 1521 1523 1519 1516 1513 1511 1511 1510 1508 1507 1506 1506 1507 1508 1510 1510 1510 1513 1516 1516 1517
1478 1482 1485 1489 1493 1495 1497 1500 1502 1503 1506 1508 1508 1509 1507 1512 1514 1516 1515 1514 1511 1509 1506 1505 1503 1503 1501 1501 1501 1502 1504 1505 1507 1508 1509 1511 1513 1513
1470 1474 1477 1481 1484 1487 1490 1493 1495 1495 1496 1499 1501 1502 1501 1506 1506 1509 1509 1508 1505 1504 1503 1502 1500 1499 1498 1496 1497 1500 1500 1501 1502 1504 1506 1507 1509 1509
1465 1467 1469 1472 1476 1477 1481 1485 1484 1487 1487 1490 1491 1495 1496 1500 1503 1503 1503 1501 1499 1499 1498 1497 1496 1495 1494 1493 1494 1498 1499 1499 1498 1500 1503 1504 1506 1506
1457 1459 1461 1464 1467 1469 1471 1473 1474 1477 1479 1482 1485 1492 1495 1495 1498 1498 1497 1497 1496 1495 1495 1493 1494 1494 1492 1491 1491 1495 1497 1496 1495 1496 1498 1499 1500 1501
1448 1450 1451 1453 1456 1458 1462 1463 1465 1468 1474 1477 1482 1486 1486 1487 1491 1492 1493 1493 1492 1492 1491 1490 1489 1490 1488 1486 1487 1492 1493 1493 1492 1493 1494 1495 1496 1496
1441 1443 1441 1443 1445 1447 1450 1451 1459 1462 1466 1470 1474 1476 1478 1480 1483 1484 1486 1486 1485 1486 1485 1485 1485 1485 1483 1482 1484 1486 1488 1490 1490 1490 1491 1492 1492 1490
1435 1436 1437 1438 1438 1440 1445 1448 1451 1454 1458 1464 1470 1472 1473 1475 1477 1479 1480 1480 1479 1478 1479 1479 1481 1482 1481 1480 1481 1482 1484 1484 1483 1484 1486 1489 1490 1487
1431 1430 1431 1432 1435 1436 1437 1439 1444 1449 1456 1459 1463 1466 1467 1470 1474 1475 1477 1477 1476 1476 1477 1479 1479 1478 1478 1479 1478 1479 1479 1479 1478 1480 1482 1485 1485 1485
1428 1427 1428 1428 1428 1429 1431 1432 1436 1443 1448 1453 1456 1459 1464 1467 1468 1469 1472 1474 1473 1473 1474 1475 1475 1474 1474 1475 1475 1475 1474 1475 1474 1474 1477 1480 1479 1480
1423 1420 1419 1418 1419 1419 1421 1426 1432 1433 1440 1445 1450 1452 1454 1456 1459 1462 1465 1467 1466 1466 1468 1470 1473 1473 1471 1470 1469 1471 1469 1469 1469 1470 1472 1474 1474 1474
1415 1414 1413 1411 1409 1412 1416 1419 1421 1427 1429 1433 1438 1442 1446 1449 1451 1452 1455 1460 1461 1460 1464 1465 1468 1468 1468 1468 1465 1466 1466 1465 1464 1466 1469 1469 1469 1469
1408 1407 1406 1405 1404 1405 1407 1411 1415 1419 1422 1428 1430 1432 1435 1441 1445 1449 1451 1451 1452 1455 1457 1459 1461 1466 1465 1464 1461 1462 1461 1461 1462 1463 1464 1464 1464 1464
1401 1400 1399 1397 1398 1398 1398 1399 1401 1407 1413 1417 1422 1424 1429 1434 1437 1439 1442 1446 1449 1451 1450 1453 1455 1458 1462 1459 1459 1460 1459 1458 1459 1460 1460 1459 1459 1459
1392 1389 1388 1387 1388 1389 1390 1392 1393 1395 1401 1408 1411 1415 1419 1424 1428 1432 1435 1438 1443 1444 1445 1447 1450 1452 1454 1456 1456 1456 1456 1456 1456 1456 1458 1457 1457 1456
1383 1381 1379 1378 1378 1380 1381 1383 1385 1388 1393 1398 1402 1407 1409 1415 1419 1425 1429 1433 1435 1437 1439 1441 1447 1449 1447 1448 1452 1453 1453 1454 1453 1453 1454 1455 1454 1454
1377 1374 1373 1370 1369 1369 1372 1372 1375 1379 1385 1389 1394 1398 1403 1408 1412 1418 1423 1426 1428 1430 1434 1437 1440 1442 1442 1442 1446 1450 1450 1450 1450 1451 1451 1452 1452 1452
1370 1367 1365 1362 1361 1361 1363 1365 1368 1372 1375 1381 1386 1391 1398 1403 1408 1412 1417 1420 1422 1424 1428 1432 1434 1435 1436 1438 1441 1443 1444 1445 1447 1447 1447 1446 1447 1448
Wind_Speed
44 41 39 37 35 29 27 25 24 19 21 21 20 19 19 16 15 14 15 14 15 17 17 17 17 19 20 18 18 17 13 14 13 12 8 5 4 2
44 42 40 38 36 34 32 29 28 23 18 17 20 22 20 19 18 18 18 16 17 18 19 19 20 20 20 20 19 17 12 12 12 12 7 5 4 2
44 42 41 40 39 39 36 33 30 27 22 19 22 23 22 22 20 17 17 16 18 20 21 21 21 19 19 20 16 12 16 14 14 10 10 7 6 3
41 41 43 43 41 38 36 34 32 29 26 25 25 24 25 23 21 18 18 18 19 22 22 21 20 20 19 16 15 13 12 14 13 11 15 11 10 10
39 41 43 42 41 39 37 35 33 32 29 28 25 25 24 22 20 19 19 19 20 22 22 21 20 20 18 15 11 12 14 18 18 17 15 12 14 10
39 40 42 43 43 42 39 38 35 34 32 31 28 25 19 19 20 20 21 20 20 22 20 19 19 18 18 16 13 15 15 19 19 17 15 14 14 12
40 41 42 43 43 42 40 39 38 35 33 32 30 27 21 22 23 21 21 20 21 20 19 18 16 15 14 13 13 16 16 14 16 16 14 13 15 15
39 42 43 42 42 42 39 37 36 37 34 36 32 27 22 21 20 20 20 20 19 20 18 16 15 14 13 11 11 15 15 16 14 15 16 17 18 18
42 45 42 44 46 44 41 42 34 36 35 31 27 23 21 19 19 19 20 21 19 18 15 14 13 11 11 11 11 14 16 16 14 15 16 15 16 16
45 46 46 43 47 49 44 42 38 36 33 31 23 19 20 19 19 19 19 19 17 16 14 13 11 10 10 10 11 15 17 17 16 17 18 18 19 19
41 46 48 43 43 43 42 39 40 38 29 20 20 25 24 21 19 18 16 16 15 15 14 13 13 11 9 8 10 13 15 17 17 16 17 16 16 16
34 38 30 36 38 40 44 38 30 23 23 28 34 29 24 20 19 17 15 15 15 13 14 15 12 10 6 8 9 11 13 12 15 16 16 18 19 17
29 29 26 23 26 28 32 35 25 26 31 32 30 26 24 20 16 14 14 14 14 13 11 12 12 11 11 8 9 9 12 14 13 14 16 17 19 19
26 27 26 32 34 35 33 32 34 29 31 32 30 27 23 18 15 14 13 14 14 13 13 13 14 12 14 14 13 13 15 16 15 17 19 20 21 22
29 29 32 32 37 36 39 36 31 31 33 32 31 26 20 15 18 15 12 11 12 11 12 13 15 15 15 16 15 13 13 15 17 19 20 20 19 20
28 33 35 36 35 39 38 33 33 34 37 34 30 24 22 24 21 18 14 11 11 10 11 13 15 16 15 15 14 12 13 12 10 17 21 22 22 21
26 29 30 31 32 37 37 39 40 39 39 36 31 29 28 25 23 21 19 17 14 10 11 12 14 15 16 15 14 12 13 15 15 17 20 19 19 18
26 31 33 32 34 34 35 36 36 36 36 34 34 32 28 26 25 23 22 20 17 16 15 13 14 16 16 14 13 11 14 11 12 13 16 17 16 18
32 30 34 37 39 41 43 45 46 46 43 40 37 32 30 28 27 26 24 22 20 19 17 16 15 16 17 13 11 10 11 11 9 10 11 11 11 13
32 32 35 36 40 43 45 46 46 45 43 40 38 35 33 31 29 27 25 22 20 18 18 18 17 18 17 13 12 10 9 11 12 11 10 10 8 8
29 33 32 35 37 41 42 44 44 43 42 40 37 36 35 33 28 25 23 21 19 18 18 18 16 18 19 18 15 12 12 10 11 11 10 9 7 5
25 28 31 31 32 36 39 36 36 39 39 37 37 35 34 30 26 23 21 21 21 19 17 15 16 21 20 19 16 16 15 14 14 13 12 12 10 6
28 26 28 27 27 30 31 29 29 31 34 35 34 31 29 26 24 21 21 21 21 21 19 17 17 20 20 19 18 18 18 17 16 15 13 14 13 13
Wind_Direction
222 225 229 232 233 235 235 239 237 235 244 242 241 240 239 237 243 259 269 276 276 278 285 287 288 283 281 282 276 281 285 287 292 308 312 318 325 329
224 227 229 232 234 235 238 242 241 243 246 239 241 240 239 243 253 268 267 277 281 288 290 288 286 285 282 279 275 266 252 266 277 283 281 317 308 251
226 229 232 234 237 239 240 238 238 236 241 249 245 246 242 245 260 258 260 270 283 286 288 290 291 289 282 279 278 244 243 240 253 253 262 277 258 225
226 231 233 236 237 236 234 235 239 235 244 256 253 249 239 252 257 258 265 273 279 288 292 297 294 287 280 270 269 246 230 234 236 248 243 254 265 229
232 234 234 234 233 231 233 239 238 236 249 252 243 241 247 252 255 262 270 281 285 289 289 290 292 292 286 267 248 226 227 236 249 225 221 254 258 224
234 237 237 237 235 235 238 239 237 241 249 244 235 239 243 255 263 270 275 283 285 286 286 288 288 290 282 264 242 231 236 243 237 237 246 237 219 238
234 243 243 241 241 240 240 238 238 241 244 237 236 233 239 244 256 259 268 281 287 285 280 277 278 281 283 262 243 230 235 242 245 242 222 223 229 239
243 244 243 241 239 242 237 237 243 247 241 233 233 238 237 242 246 259 273 280 284 278 265 263 269 268 261 252 243 242 234 232 233 234 230 230 234 226
249 249 244 240 239 233 234 238 246 243 235 231 231 235 233 239 250 261 271 277 272 258 253 256 258 256 253 249 240 241 241 241 233 232 230 229 227 233
249 252 245 241 240 241 240 242 240 229 222 225 227 225 235 243 252 262 272 274 263 252 248 255 255 258 260 259 244 242 245 242 241 237 238 239 239 237
245 249 240 245 240 239 239 241 232 233 226 225 216 223 231 237 249 263 269 269 262 255 251 252 255 256 263 262 241 244 242 243 241 239 237 234 233 232
236 251 243 236 242 245 241 227 220 223 227 219 214 217 227 237 247 253 258 259 250 250 249 248 247 251 257 251 240 233 241 244 242 243 242 243 240 234
246 246 251 250 242 237 233 227 231 228 217 215 218 223 227 234 241 248 255 254 244 235 242 234 246 253 248 249 236 229 236 238 239 240 242 244 248 244
257 247 253 242 238 237 231 223 227 214 218 214 219 224 228 232 238 242 252 256 249 246 247 250 258 258 258 260 256 252 251 247 244 247 249 249 248 250
263 258 254 248 244 234 228 226 211 211 216 221 225 228 232 231 231 235 243 259 255 254 254 256 258 259 260 263 265 260 258 257 252 249 251 251 248 248
273 264 255 254 247 232 225 216 217 217 221 224 227 226 222 226 228 224 229 239 237 246 254 257 261 263 264 266 268 267 266 253 261 256 254 251 249 248
284 275 266 254 243 227 221 218 216 218 218 218 221 220 223 224 221 219 222 227 234 239 253 261 262 261 265 270 275 278 264 263 264 258 258 253 250 248
289 276 267 257 244 232 229 227 228 226 227 227 223 220 223 225 222 224 228 230 235 237 241 252 260 266 269 271 274 267 263 263 264 268 262 259 256 253
278 279 275 263 252 241 233 226 225 228 231 227 227 223 222 219 219 221 226 232 236 238 241 247 252 261 265 268 268 265 261 262 259 265 267 267 258 244
278 271 269 272 266 255 247 241 236 233 231 227 223 221 220 218 219 220 223 229 235 239 244 251 254 257 259 264 256 261 244 247 257 260 265 267 265 250
285 279 269 265 267 267 259 252 247 242 235 228 222 220 215 215 217 222 224 229 233 237 246 257 266 253 243 245 248 248 247 242 249 251 255 261 266 261
293 285 275 267 263 263 262 254 249 243 237 229 226 219 215 215 215 218 225 231 235 237 243 246 248 245 245 247 246 243 244 256 256 259 259 260 261 259
295 291 282 270 264 262 262 252 243 237 234 231 223 215 212 211 215 222 231 235 236 236 236 237 240 244 245 247 251 245 242 245 251 257 261 258 256 252